Kosmos-770

operational
NORAD ID: 8325 Int'l Des: 1975-089 Owner: VTS Country: SU
LEOCIRCULARPOLAR

关于 Kosmos-770

正在加载描述...

实时位置

正在加载3D地球...

即将过境

高度历史

Altitude vs Time

uPlot chart will show altitude changes over time

两行轨道根数

1 08325U 75089A 26062.53529289 .00000046 00000-0 82637-4 0 9996
2 08325 82.9532 79.8531 0028705 6.7471 105.3679 13.19804361429450
Epoch: Mar 3, 2026 • Age: 29 hours

当前状态

高度 1167.2 km
速度 7.28 km/s
星下点 -2.69°S, 152.52°W
类型 other

大型星座

Loading constellations...